Time,TemperatureF,DewpointF,PressureIn,WindDirection,WindDirectionDegrees,WindSpeedMPH,WindSpeedGustMPH,Humidity,HourlyPrecipIn,Conditions,Clouds,dailyrainin,SoftwareType,DateUTC
2013-01-21 00:04:00,20.7,-3.3,29.71,West,270,3.1,6.3,34,0.00,,---,0.00,VWS V14.00,2013-01-21 02:04:00,
2013-01-21 00:09:00,20.7,-3.3,29.71,NE,45,6.3,10.1,34,0.00,,---,0.00,VWS V14.00,2013-01-21 02:09:00,
2013-01-21 00:14:00,20.7,-3.3,29.71,NE,45,3.6,5.8,34,0.00,,---,0.00,VWS V14.00,2013-01-21 02:14:00,
2013-01-21 00:19:00,20.5,-3.4,29.71,NW,315,8.3,8.7,34,0.00,,---,0.00,VWS V14.00,2013-01-21 02:19:00,
2013-01-21 00:24:00,20.5,-3.4,29.71,NNW,338,7.6,7.6,34,0.00,,---,0.00,VWS V14.00,2013-01-21 02:24:00,
2013-01-21 00:29:00,20.3,-3.6,29.71,North,0,3.6,6.3,34,0.00,,---,0.00,VWS V14.00,2013-01-21 02:29:00,
2013-01-21 00:34:00,20.3,-3.6,29.71,NW,315,10.1,12.3,34,0.00,,---,0.00,VWS V14.00,2013-01-21 02:34:00,
2013-01-21 00:39:00,20.3,-3.6,29.71,North,0,6.3,8.3,34,0.00,,---,0.00,VWS V14.00,2013-01-21 02:39:00,
2013-01-21 00:44:00,20.3,-3.6,29.71,West,270,3.6,5.4,34,0.00,,---,0.00,VWS V14.00,2013-01-21 02:44:00,
2013-01-21 00:49:00,20.3,-3.6,29.74,NE,45,8.1,8.1,34,0.00,,---,0.00,VWS V14.00,2013-01-21 02:49:00,
2013-01-21 00:54:00,20.3,-3.6,29.74,North,0,0.0,6.3,34,0.00,,---,0.00,VWS V14.00,2013-01-21 02:54:00,
2013-01-21 00:59:00,20.3,-3.6,29.74,North,0,8.7,8.7,34,0.00,,---,0.00,VWS V14.00,2013-01-21 02:59:00,
2013-01-21 01:04:00,20.3,-3.6,29.71,NW,315,3.6,5.8,34,0.00,,---,0.00,VWS V14.00,2013-01-21 03:04:00,
2013-01-21 01:09:00,20.1,-3.1,29.71,North,0,2.7,3.1,35,0.00,,---,0.00,VWS V14.00,2013-01-21 03:09:00,
2013-01-21 01:14:00,20.1,-3.1,29.71,NW,315,3.6,9.6,35,0.00,,---,0.00,VWS V14.00,2013-01-21 03:14:00,
2013-01-21 23:27:00,17.1,-11.9,29.50,NW,315,8.1,8.1,26,0.00,,---,0.00,VWS V14.00,2013-01-22 01:27:00,
2013-01-21 23:32:00,17.1,-11.9,29.50,NNW,338,8.1,8.7,26,0.00,,---,0.00,VWS V14.00,2013-01-22 01:32:00,
2013-01-21 23:37:00,17.1,-11.9,29.53,North,0,9.2,9.2,26,0.00,,---,0.00,VWS V14.00,2013-01-22 01:37:00,
2013-01-21 23:42:00,17.1,-8.4,29.53,NW,315,6.3,6.3,31,0.00,,---,0.00,VWS V14.00,2013-01-22 01:42:00,
2013-01-21 23:47:00,16.9,-10.6,29.53,North,0,8.3,8.3,28,0.00,,---,0.00,VWS V14.00,2013-01-22 01:47:00,
2013-01-21 23:52:00,16.7,-10.7,29.53,North,0,7.6,7.6,28,0.00,,---,0.00,VWS V14.00,2013-01-22 01:52:00,
2013-01-21 23:57:00,16.9,-10.6,29.53,NE,45,10.1,10.1,28,0.00,,---,0.00,VWS V14.00,2013-01-22 01:57:00,